,,,PA_Meas_PMT16A,,PR_Meas_QMR101_102,,RH_Meas_QMH101,,SR_Meas_QMS101,,TA_Meas_QMH101,,GenWind,,GenWind,
date,time,status,PA,status,PR,status,RH,status,SR,status,TA,status,DirAvg,status,SpdAvg,
2009-12-03, 00:00:05,VALID,1002.46,VALID,0,VALID,90.5014,VALID,0,VALID,25.1637,VALID,353,VALID,1.14297,
2009-12-03, 00:01:05,VALID,1002.43,VALID,0,VALID,90.5396,VALID,0,VALID,25.1637,VALID,348,VALID,0.00195313,
2009-12-03, 00:02:05,VALID,1002.41,VALID,0,VALID,89.9979,VALID,0,VALID,25.1832,VALID,316,VALID,0.890625,
2009-12-03, 00:03:05,VALID,1002.33,VALID,0,VALID,89.9903,VALID,0,VALID,25.2435,VALID,349,VALID,1.05859,
2009-12-03, 00:04:05,VALID,1002.26,VALID,0,VALID,89.9903,VALID,0,VALID,25.2007,VALID,353,VALID,1.35469,
2009-12-03, 00:05:05,VALID,1002.26,VALID,0,VALID,90.036,VALID,0,VALID,25.2221,VALID,347,VALID,1.14727,
2009-12-03, 00:06:05,VALID,1002.22,VALID,0,VALID,90.0666,VALID,0,VALID,25.2221,VALID,331,VALID,0.552734,
2009-12-03, 00:07:05,VALID,1002.19,VALID,0,VALID,89.8453,VALID,0,VALID,25.2027,VALID,348,VALID,0.347656,
2009-12-03, 00:08:05,VALID,1002.15,VALID,0,VALID,89.8072,VALID,0,VALID,25.2221,VALID,360,VALID,0.458984,
2009-12-03, 00:09:05,VALID,1002.15,VALID,0,VALID,89.7996,VALID,0,VALID,25.2221,VALID,333,VALID,0.154297,
2009-12-03, 00:10:05,VALID,1002.17,VALID,0,VALID,89.6317,VALID,0,VALID,25.2611,VALID,287,VALID,1.18477,
2009-12-03, 00:11:05,VALID,1002.12,VALID,0,VALID,89.4105,VALID,0,VALID,25.2397,VALID,10,VALID,1.14141,
2009-12-03, 00:12:05,VALID,1002.12,VALID,0,VALID,89.2732,VALID,0,VALID,25.2806,VALID,345,VALID,0.467969,
2009-12-03, 00:13:05,VALID,1002.09,VALID,0,VALID,89.2045,VALID,0,VALID,25.2806,VALID,307,VALID,0.587891,
2009-12-03, 00:14:05,VALID,1002.06,VALID,0,VALID,89.0519,VALID,0,VALID,25.2786,VALID,327,VALID,1.1582,
2009-12-03, 00:15:05,VALID,1002.05,VALID,0,VALID,89.113,VALID,0,VALID,25.3,VALID,336,VALID,0.700391,
2009-12-03, 00:16:05,VALID,1002.05,VALID,0,VALID,89.1587,VALID,0,VALID,25.2592,VALID,334,VALID,0.544141,
2009-12-03, 00:17:05,VALID,1002.05,VALID,0,VALID,89.0138,VALID,0,VALID,25.2806,VALID,269,VALID,0.911328,
2009-12-03, 00:18:05,VALID,1002.05,VALID,0,VALID,89.0443,VALID,0,VALID,25.2806,VALID,300,VALID,1.11211,
2009-12-03, 00:19:05,VALID,1002.06,VALID,0,VALID,88.9909,VALID,0,VALID,25.2806,VALID,320,VALID,0.652734,
2009-12-03, 00:20:05,VALID,1002.07,VALID,0,VALID,88.8841,VALID,0,VALID,25.2611,VALID,296,VALID,1.38555,
2009-12-03, 00:21:05,VALID,1002.1,VALID,0,VALID,88.8993,VALID,0,VALID,25.2611,VALID,14,VALID,0.267578,
2009-12-03, 00:22:05,VALID,1002.08,VALID,0,VALID,88.8993,VALID,0,VALID,25.2611,VALID,300,VALID,0.601953,
2009-12-03, 00:23:05,VALID,1002.1,VALID,0,VALID,88.8078,VALID,0,VALID,25.2825,VALID,302,VALID,0.69375,
2009-12-03, 00:24:05,VALID,1002.05,VALID,0,VALID,88.7315,VALID,0,VALID,25.2806,VALID,292,VALID,0.587109,
2009-12-03, 00:25:05,VALID,1002.03,VALID,0,VALID,88.5255,VALID,0,VALID,25.3,VALID,306,VALID,1.29453,
2009-12-03, 00:26:05,VALID,1002.02,VALID,0,VALID,88.3424,VALID,0,VALID,25.3195,VALID,344,VALID,1.02227,
2009-12-03, 00:27:05,VALID,1002.03,VALID,0,VALID,87.7092,VALID,0,VALID,25.3974,VALID,302,VALID,0.897266,
2009-12-03, 00:28:05,VALID,1002,VALID,0,VALID,87.6253,VALID,0,VALID,25.4558,VALID,337,VALID,0.6,
2009-12-03, 00:29:05,VALID,1001.96,VALID,0,VALID,87.5567,VALID,0,VALID,25.4539,VALID,338,VALID,1.10234,
2009-12-03, 00:30:05,VALID,1001.96,VALID,0,VALID,87.694,VALID,0,VALID,25.4772,VALID,277,VALID,0.648047,
2009-12-03, 00:31:05,VALID,1001.94,VALID,0,VALID,87.7398,VALID,0,VALID,25.4558,VALID,268,VALID,1.21055,
2009-12-03, 00:32:05,VALID,1001.91,VALID,0,VALID,87.6329,VALID,0,VALID,25.4772,VALID,355,VALID,1.23555,
2009-12-03, 00:33:05,VALID,1001.93,VALID,0,VALID,87.8008,VALID,0,VALID,25.4558,VALID,322,VALID,0.641406,
2009-12-03, 00:34:05,VALID,1001.87,VALID,0,VALID,87.755,VALID,0,VALID,25.4169,VALID,329,VALID,1.5582,
2009-12-03, 00:35:05,VALID,1001.87,VALID,0,VALID,87.9,VALID,0,VALID,25.4149,VALID,217,VALID,0.86875,
2009-12-03, 00:36:05,VALID,1001.92,VALID,0,VALID,87.6711,VALID,0,VALID,25.4169,VALID,298,VALID,1.33281,
2009-12-03, 00:37:05,VALID,1001.89,VALID,0,VALID,87.8237,VALID,0,VALID,25.4363,VALID,297,VALID,1.02148,
2009-12-03, 00:38:05,VALID,1001.9,VALID,0,VALID,87.7703,VALID,0,VALID,25.4169,VALID,314,VALID,0.728516,
2009-12-03, 00:39:05,VALID,1001.87,VALID,0,VALID,87.8542,VALID,0,VALID,25.4169,VALID,291,VALID,0.9625,
2009-12-03, 00:40:05,VALID,1001.83,VALID,0,VALID,87.7321,VALID,0,VALID,25.3974,VALID,328,VALID,0.715625,
2009-12-03, 00:41:05,VALID,1001.89,VALID,0,VALID,87.6024,VALID,0,VALID,25.4169,VALID,296,VALID,0.851172,
2009-12-03, 00:42:05,VALID,1001.85,VALID,0,VALID,87.3888,VALID,0,VALID,25.4344,VALID,316,VALID,1.44609,
2009-12-03, 00:43:05,VALID,1001.83,VALID,0,VALID,87.4422,VALID,0,VALID,25.4753,VALID,293,VALID,0.846094,
2009-12-03, 00:44:05,VALID,1001.86,VALID,0,VALID,87.3659,VALID,0,VALID,25.4753,VALID,288,VALID,1.39609,
2009-12-03, 00:45:05,VALID,1001.85,VALID,0,VALID,87.3583,VALID,0,VALID,25.4753,VALID,283,VALID,1.15508,
2009-12-03, 00:46:05,VALID,1001.9,VALID,0,VALID,87.1371,VALID,0,VALID,25.4948,VALID,293,VALID,1.18047,
2009-12-03, 00:47:05,VALID,1001.89,VALID,0,VALID,87.16,VALID,0,VALID,25.5142,VALID,292,VALID,0.742188,
2009-12-03, 00:48:05,VALID,1001.91,VALID,0,VALID,87.1752,VALID,0,VALID,25.5142,VALID,293,VALID,1.3793,
2009-12-03, 00:49:05,VALID,1001.89,VALID,0,VALID,87.2896,VALID,0,VALID,25.4948,VALID,266,VALID,0.748828,
2009-12-03, 00:50:05,VALID,1001.92,VALID,0,VALID,87.282,VALID,0,VALID,25.4539,VALID,300,VALID,1.57422,
2009-12-03, 00:51:05,VALID,1001.87,VALID,0,VALID,87.2973,VALID,0,VALID,25.4948,VALID,283,VALID,1.03594,
2009-12-03, 00:52:05,VALID,1001.88,VALID,0,VALID,87.3202,VALID,0,VALID,25.4753,VALID,310,VALID,1.00117,
2009-12-03, 00:53:05,VALID,1001.88,VALID,0,VALID,87.3583,VALID,0,VALID,25.4753,VALID,275,VALID,1.38789,
2009-12-03, 00:54:05,VALID,1001.91,VALID,0,VALID,87.427,VALID,0,VALID,25.4753,VALID,341,VALID,0.469922,
2009-12-03, 00:55:05,VALID,1001.9,VALID,0,VALID,87.5567,VALID,0,VALID,25.4344,VALID,253,VALID,0.820703,
2009-12-03, 00:56:05,VALID,1001.92,VALID,0,VALID,87.5185,VALID,0,VALID,25.4558,VALID,295,VALID,1.06914,
2009-12-03, 00:57:05,VALID,1001.91,VALID,0,VALID,87.282,VALID,0,VALID,25.4344,VALID,280,VALID,2.58164,
2009-12-03, 00:58:05,VALID,1001.91,VALID,0,VALID,87.1142,VALID,0,VALID,25.4753,VALID,286,VALID,2.00039,
2009-12-03, 00:59:05,VALID,1001.93,VALID,0,VALID,86.9692,VALID,0,VALID,25.5142,VALID,280,VALID,1.57695,
2009-12-03, 01:00:05,VALID,1001.94,VALID,0,VALID,86.8395,VALID,0,VALID,25.5746,VALID,303,VALID,1.13984,
2009-12-03, 01:01:05,VALID,1001.92,VALID,0,VALID,86.9006,VALID,0,VALID,25.5727,VALID,300,VALID,0.678125,
2009-12-03, 01:02:05,VALID,1001.94,VALID,0,VALID,86.9311,VALID,0,VALID,25.5727,VALID,355,VALID,0.515625,
2009-12-03, 01:03:05,VALID,1001.88,VALID,0,VALID,86.8319,VALID,0,VALID,25.5318,VALID,352,VALID,2.15469,
2009-12-03, 01:04:05,VALID,1001.92,VALID,0,VALID,86.9998,VALID,0,VALID,25.5532,VALID,354,VALID,0.136719,
2009-12-03, 01:05:05,VALID,1001.94,VALID,0,VALID,87.1371,VALID,0,VALID,25.5318,VALID,343,VALID,0.217969,
2009-12-03, 01:06:05,VALID,1001.96,VALID,0,VALID,87.221,VALID,0,VALID,25.5337,VALID,2,VALID,0.592578,
2009-12-03, 01:07:05,VALID,1001.93,VALID,0,VALID,87.282,VALID,0,VALID,25.5142,VALID,2,VALID,0.408203,
2009-12-03, 01:08:05,VALID,1001.96,VALID,0,VALID,87.221,VALID,0,VALID,25.5142,VALID,282,VALID,0.678125,
2009-12-03, 01:09:05,VALID,1001.97,VALID,0,VALID,87.1828,VALID,0,VALID,25.5142,VALID,253,VALID,0.832031,
2009-12-03, 01:10:05,VALID,1001.96,VALID,0,VALID,87.3278,VALID,0,VALID,25.5123,VALID,281,VALID,0.139844,
2009-12-03, 01:11:05,VALID,1001.96,VALID,0,VALID,87.4575,VALID,0,VALID,25.4948,VALID,300,VALID,0.591406,
2009-12-03, 01:12:05,VALID,1001.96,VALID,0,VALID,87.2439,VALID,0,VALID,25.4948,VALID,281,VALID,0.426562,
2009-12-03, 01:13:05,VALID,1001.97,VALID,0,VALID,87.343,VALID,0,VALID,25.5142,VALID,293,VALID,0.276953,
2009-12-03, 01:14:05,VALID,1001.93,VALID,0,VALID,87.3354,VALID,0,VALID,25.5142,VALID,356,VALID,0.630078,
2009-12-03, 01:15:05,VALID,1001.97,VALID,0,VALID,87.3354,VALID,0,VALID,25.5337,VALID,319,VALID,0.631641,
2009-12-03, 01:16:05,VALID,1001.95,VALID,0,VALID,87.221,VALID,0,VALID,25.5337,VALID,289,VALID,0.694922,
2009-12-03, 01:17:05,VALID,1001.96,VALID,0,VALID,87.2591,VALID,0,VALID,25.5318,VALID,243,VALID,1.06016,
2009-12-03, 01:18:05,VALID,1001.95,VALID,0,VALID,86.9158,VALID,0,VALID,25.5921,VALID,289,VALID,1.33438,
2009-12-03, 01:19:05,VALID,1002,VALID,0,VALID,86.6412,VALID,0,VALID,25.6311,VALID,292,VALID,1.23477,
2009-12-03, 01:20:05,VALID,1001.89,VALID,0,VALID,86.1911,VALID,0,VALID,25.6486,VALID,299,VALID,2.97344,
2009-12-03, 01:21:05,VALID,1001.95,VALID,0,VALID,85.7486,VALID,0,VALID,25.7674,VALID,296,VALID,2.48438,
2009-12-03, 01:22:05,VALID,1001.97,VALID,0,VALID,85.7486,VALID,0,VALID,25.8668,VALID,291,VALID,1.20664,
2009-12-03, 01:23:05,VALID,1001.93,VALID,0,VALID,85.68,VALID,0,VALID,25.8239,VALID,278,VALID,0.928125,
2009-12-03, 01:24:05,VALID,1001.96,VALID,0,VALID,85.6723,VALID,0,VALID,25.8668,VALID,278,VALID,1.47734,
2009-12-03, 01:25:05,VALID,1001.95,VALID,0,VALID,85.7791,VALID,0,VALID,25.8648,VALID,286,VALID,0.972266,
2009-12-03, 01:26:05,VALID,1001.93,VALID,0,VALID,85.6037,VALID,0,VALID,25.8648,VALID,274,VALID,1.13359,
2009-12-03, 01:27:05,VALID,1001.93,VALID,0,VALID,85.7486,VALID,0,VALID,25.9038,VALID,317,VALID,0.649219,
2009-12-03, 01:28:05,VALID,1001.92,VALID,0,VALID,85.6418,VALID,0,VALID,25.8843,VALID,23,VALID,1.08711,
2009-12-03, 01:29:05,VALID,1001.93,VALID,0,VALID,85.7562,VALID,0,VALID,25.8648,VALID,312,VALID,1.08672,
2009-12-03, 01:30:05,VALID,1001.89,VALID,0,VALID,85.7486,VALID,0,VALID,25.8648,VALID,334,VALID,1.08594,
2009-12-03, 01:31:05,VALID,1001.88,VALID,0,VALID,86.0309,VALID,0,VALID,25.8648,VALID,248,VALID,0.81875,
2009-12-03, 01:32:05,VALID,1001.81,VALID,0,VALID,86.1072,VALID,0,VALID,25.8453,VALID,355,VALID,0.670313,
2009-12-03, 01:33:05,VALID,1001.79,VALID,0,VALID,86.4047,VALID,0,VALID,25.8064,VALID,337,VALID,0.730859,
2009-12-03, 01:34:05,VALID,1001.78,VALID,0,VALID,86.4276,VALID,0,VALID,25.748,VALID,303,VALID,0.387109,
2009-12-03, 01:35:05,VALID,1001.8,VALID,0,VALID,86.7327,VALID,0,VALID,25.709,VALID,306,VALID,0.121875,
2009-12-03, 01:36:05,VALID,1001.78,VALID,0,VALID,86.8624,VALID,0,VALID,25.67,VALID,21,VALID,0.841016,
2009-12-03, 01:37:05,VALID,1001.71,VALID,0,VALID,87.16,VALID,0,VALID,25.6116,VALID,347,VALID,0.519922,
2009-12-03, 01:38:05,VALID,1001.72,VALID,0,VALID,87.5261,VALID,0,VALID,25.5532,VALID,346,VALID,0.369922,
2009-12-03, 01:39:05,VALID,1001.68,VALID,0,VALID,87.7321,VALID,0,VALID,25.5142,VALID,354,VALID,0.8125,
2009-12-03, 01:40:05,VALID,1001.65,VALID,0,VALID,87.7932,VALID,0,VALID,25.4753,VALID,343,VALID,1.23281,
2009-12-03, 01:41:05,VALID,1001.64,VALID,0,VALID,87.9762,VALID,0,VALID,25.4558,VALID,338,VALID,0.900391,
2009-12-03, 01:42:04,VALID,1001.6,VALID,0,VALID,88.228,VALID,0,VALID,25.4363,VALID,354,VALID,0.944141,
2009-12-03, 01:43:04,VALID,1001.59,VALID,0,VALID,88.4874,VALID,0,VALID,25.3974,VALID,1,VALID,0.538281,
2009-12-03, 01:44:04,VALID,1001.57,VALID,0,VALID,88.64,VALID,0,VALID,25.3584,VALID,5,VALID,0.688281,
2009-12-03, 01:45:04,VALID,1001.59,VALID,0,VALID,88.7239,VALID,0.100563,VALID,25.3195,VALID,360,VALID,0.809766,
2009-12-03, 01:46:04,VALID,1001.59,VALID,0,VALID,88.9375,VALID,0,VALID,25.3,VALID,342,VALID,0.944531,
2009-12-03, 01:47:04,VALID,1001.56,VALID,0,VALID,89.1969,VALID,0,VALID,25.2611,VALID,351,VALID,1.18359,
2009-12-03, 01:48:04,VALID,1001.55,VALID,0,VALID,89.4868,VALID,0,VALID,25.2007,VALID,20,VALID,0.627344,
2009-12-03, 01:49:04,VALID,1001.52,VALID,0,VALID,89.6012,VALID,0,VALID,25.1618,VALID,4,VALID,1.22852,
2009-12-03, 01:50:04,VALID,1001.5,VALID,0,VALID,89.6622,VALID,0,VALID,25.1442,VALID,355,VALID,1.50937,
2009-12-03, 01:51:04,VALID,1001.45,VALID,0,VALID,89.7767,VALID,0,VALID,25.1442,VALID,4,VALID,0.952734,
2009-12-03, 01:52:04,VALID,1001.46,VALID,0,VALID,89.9521,VALID,0,VALID,25.1442,VALID,348,VALID,0.505469,
2009-12-03, 01:53:04,VALID,1001.46,VALID,0,VALID,90.0742,VALID,0,VALID,25.1053,VALID,346,VALID,1.21133,
2009-12-03, 01:54:04,VALID,1001.39,VALID,0,VALID,90.1734,VALID,0,VALID,25.0858,VALID,6,VALID,0.741406,
2009-12-03, 01:55:04,VALID,1001.38,VALID,0,VALID,90.036,VALID,0,VALID,25.1053,VALID,21,VALID,1.75977,
2009-12-03, 01:56:04,VALID,1001.36,VALID,0,VALID,90.0132,VALID,0,VALID,25.1034,VALID,348,VALID,1.11094,
2009-12-03, 01:57:04,VALID,1001.34,VALID,0,VALID,89.9674,VALID,0,VALID,25.1656,VALID,3,VALID,1.44062,
2009-12-03, 01:58:04,VALID,1001.35,VALID,0,VALID,89.8377,VALID,0,VALID,25.1442,VALID,346,VALID,1.32422,
2009-12-03, 01:59:04,VALID,1001.4,VALID,0,VALID,89.8987,VALID,0,VALID,25.1442,VALID,358,VALID,0.852734,
2009-12-03, 02:00:04,VALID,1001.37,VALID,0,VALID,89.6317,VALID,0,VALID,25.1442,VALID,354,VALID,1.85469,
2009-12-03, 02:01:04,VALID,1001.39,VALID,0,VALID,89.6622,VALID,0,VALID,25.1832,VALID,330,VALID,0.305078,
2009-12-03, 02:02:04,VALID,1001.44,VALID,0,VALID,89.6851,VALID,0.100563,VALID,25.1618,VALID,353,VALID,1.17266,
2009-12-03, 02:03:04,VALID,1001.46,VALID,0,VALID,89.8072,VALID,0,VALID,25.1637,VALID,298,VALID,0.674219,
2009-12-03, 02:04:04,VALID,1001.44,VALID,0,VALID,89.8453,VALID,0,VALID,25.1229,VALID,346,VALID,0.574609,
2009-12-03, 02:05:04,VALID,1001.46,VALID,0,VALID,90.0055,VALID,0.100563,VALID,25.1034,VALID,9,VALID,0.738281,
2009-12-03, 02:06:04,VALID,1001.42,VALID,0,VALID,90.181,VALID,0,VALID,25.0858,VALID,2,VALID,0.7875,
2009-12-03, 02:07:04,VALID,1001.48,VALID,0,VALID,90.2344,VALID,0,VALID,25.045,VALID,342,VALID,0.709766,
2009-12-03, 02:08:04,VALID,1001.5,VALID,0,VALID,90.387,VALID,0,VALID,25.0469,VALID,348,VALID,0.528906,
2009-12-03, 02:09:04,VALID,1001.51,VALID,0,VALID,90.4022,VALID,0,VALID,25.0469,VALID,350,VALID,1.69766,
2009-12-03, 02:10:04,VALID,1001.55,VALID,0,VALID,90.3641,VALID,0,VALID,25.045,VALID,13,VALID,0.864453,
2009-12-03, 02:11:04,VALID,1001.57,VALID,0,VALID,90.3183,VALID,0,VALID,25.0663,VALID,349,VALID,0.972266,
2009-12-03, 02:12:04,VALID,1001.61,VALID,0,VALID,90.3412,VALID,0,VALID,25.0644,VALID,348,VALID,1.12969,
2009-12-03, 02:13:04,VALID,1001.64,VALID,0,VALID,90.0742,VALID,0,VALID,25.0644,VALID,350,VALID,1.58906,
2009-12-03, 02:14:04,VALID,1001.63,VALID,0,VALID,89.8835,VALID,0,VALID,25.1423,VALID,351,VALID,2.20469,
2009-12-03, 02:15:04,VALID,1001.68,VALID,0,VALID,89.5783,VALID,0.100563,VALID,25.2202,VALID,343,VALID,1.11953,
2009-12-03, 02:16:04,VALID,1001.67,VALID,0.5,VALID,89.4868,VALID,0,VALID,25.2806,VALID,7,VALID,1.00039,
2009-12-03, 02:17:04,VALID,1001.71,VALID,0,VALID,89.4944,VALID,0,VALID,25.2806,VALID,351,VALID,1.1543,
2009-12-03, 02:18:04,VALID,1001.69,VALID,0,VALID,89.6165,VALID,0,VALID,25.2611,VALID,358,VALID,0.970703,
2009-12-03, 02:19:04,VALID,1001.66,VALID,0,VALID,89.6317,VALID,0,VALID,25.2611,VALID,357,VALID,2.16523,
2009-12-03, 02:20:04,VALID,1001.62,VALID,0,VALID,89.4868,VALID,0,VALID,25.2806,VALID,353,VALID,2.07539,
2009-12-03, 02:21:04,VALID,1001.59,VALID,0,VALID,89.3342,VALID,0,VALID,25.339,VALID,350,VALID,0.755859,
2009-12-03, 02:22:04,VALID,1001.6,VALID,0,VALID,89.2884,VALID,0,VALID,25.3176,VALID,346,VALID,1.36289,
2009-12-03, 02:23:04,VALID,1001.56,VALID,0,VALID,89.2732,VALID,0,VALID,25.339,VALID,4,VALID,1.46602,
2009-12-03, 02:24:04,VALID,1001.49,VALID,0,VALID,89.4105,VALID,0,VALID,25.3176,VALID,11,VALID,1.03945,
2009-12-03, 02:25:04,VALID,1001.49,VALID,0,VALID,89.2884,VALID,0,VALID,25.3176,VALID,1,VALID,1.70234,
2009-12-03, 02:26:04,VALID,1001.51,VALID,0,VALID,89.3266,VALID,0,VALID,25.339,VALID,344,VALID,0.999219,
2009-12-03, 02:27:04,VALID,1001.47,VALID,0,VALID,89.235,VALID,0.100563,VALID,25.3584,VALID,345,VALID,1.45195,
2009-12-03, 02:28:04,VALID,1001.52,VALID,0,VALID,89.2808,VALID,0,VALID,25.3176,VALID,342,VALID,1.25977,
2009-12-03, 02:29:04,VALID,1001.48,VALID,0,VALID,89.2732,VALID,0,VALID,25.3,VALID,353,VALID,1.77227,
2009-12-03, 02:30:04,VALID,1001.49,VALID,0,VALID,89.2655,VALID,0,VALID,25.3,VALID,327,VALID,1.325,
2009-12-03, 02:31:04,VALID,1001.45,VALID,0,VALID,89.1816,VALID,0,VALID,25.3195,VALID,340,VALID,1.18633,
2009-12-03, 02:32:04,VALID,1001.42,VALID,0,VALID,89.2655,VALID,0,VALID,25.339,VALID,355,VALID,0.977344,
2009-12-03, 02:33:04,VALID,1001.38,VALID,0,VALID,89.235,VALID,0,VALID,25.3,VALID,351,VALID,1.70117,
2009-12-03, 02:34:04,VALID,1001.38,VALID,0,VALID,89.2732,VALID,0,VALID,25.2806,VALID,322,VALID,1.24141,
2009-12-03, 02:35:04,VALID,1001.38,VALID,0,VALID,89.1892,VALID,0,VALID,25.2806,VALID,324,VALID,1.28555,
2009-12-03, 02:36:04,VALID,1001.36,VALID,0,VALID,89.2426,VALID,0,VALID,25.3,VALID,359,VALID,1.52305,
2009-12-03, 02:37:04,VALID,1001.39,VALID,0,VALID,89.3647,VALID,0,VALID,25.3214,VALID,348,VALID,1.50078,
2009-12-03, 02:38:04,VALID,1001.36,VALID,0,VALID,89.3876,VALID,0,VALID,25.2806,VALID,344,VALID,1.51719,
2009-12-03, 02:39:04,VALID,1001.43,VALID,0,VALID,89.4486,VALID,0,VALID,25.3019,VALID,342,VALID,1.07461,
2009-12-03, 02:40:04,VALID,1001.42,VALID,0,VALID,89.4791,VALID,0,VALID,25.3019,VALID,350,VALID,0.640625,
2009-12-03, 02:41:04,VALID,1001.41,VALID,0,VALID,89.5402,VALID,0,VALID,25.2806,VALID,350,VALID,0.412109,
2009-12-03, 02:42:04,VALID,1001.41,VALID,0,VALID,89.6699,VALID,0,VALID,25.2825,VALID,353,VALID,0.498437,
2009-12-03, 02:43:04,VALID,1001.41,VALID,0,VALID,89.502,VALID,0,VALID,25.2806,VALID,320,VALID,0.471875,
2009-12-03, 02:44:04,VALID,1001.42,VALID,0,VALID,89.441,VALID,0,VALID,25.3,VALID,321,VALID,1.15664,
2009-12-03, 02:45:04,VALID,1001.45,VALID,0,VALID,89.4105,VALID,0,VALID,25.3195,VALID,357,VALID,0.738281,
2009-12-03, 02:46:04,VALID,1001.46,VALID,0,VALID,89.3876,VALID,0.100563,VALID,25.339,VALID,291,VALID,0.571094,
2009-12-03, 02:47:04,VALID,1001.47,VALID,0,VALID,89.2884,VALID,0,VALID,25.3176,VALID,340,VALID,0.849219,
2009-12-03, 02:48:04,VALID,1001.46,VALID,0,VALID,88.9985,VALID,0.100563,VALID,25.337,VALID,282,VALID,2.46523,
2009-12-03, 02:49:04,VALID,1001.43,VALID,0,VALID,88.9222,VALID,0,VALID,25.3955,VALID,342,VALID,0.900391,
2009-12-03, 02:50:04,VALID,1001.47,VALID,0,VALID,88.8154,VALID,0,VALID,25.3955,VALID,304,VALID,1.13242,
2009-12-03, 02:51:04,VALID,1001.47,VALID,0,VALID,88.8841,VALID,0.100563,VALID,25.3955,VALID,330,VALID,0.530469,
2009-12-03, 02:52:04,VALID,1001.48,VALID,0,VALID,88.9299,VALID,0.100563,VALID,25.4169,VALID,323,VALID,0.623047,
2009-12-03, 02:53:04,VALID,1001.49,VALID,0,VALID,89.0519,VALID,0,VALID,25.4169,VALID,2,VALID,0.304688,
2009-12-03, 02:54:04,VALID,1001.47,VALID,0,VALID,89.0748,VALID,0,VALID,25.376,VALID,350,VALID,0.548828,
2009-12-03, 02:55:04,VALID,1001.45,VALID,0,VALID,89.0748,VALID,0,VALID,25.3974,VALID,7,VALID,1.32461,
2009-12-03, 02:56:04,VALID,1001.43,VALID,0,VALID,88.9909,VALID,0,VALID,25.3565,VALID,345,VALID,1.65039,
2009-12-03, 02:57:04,VALID,1001.41,VALID,0,VALID,89.0367,VALID,0.100563,VALID,25.3974,VALID,357,VALID,1.36602,
2009-12-03, 02:58:04,VALID,1001.42,VALID,0,VALID,88.9527,VALID,0.100563,VALID,25.3974,VALID,350,VALID,2.00547,
2009-12-03, 02:59:04,VALID,1001.37,VALID,0,VALID,88.7162,VALID,0.100563,VALID,25.4149,VALID,348,VALID,1.06758,
2009-12-03, 03:00:04,VALID,1001.32,VALID,0,VALID,88.6781,VALID,0,VALID,25.4558,VALID,349,VALID,0.633984,
2009-12-03, 03:01:04,VALID,1001.28,VALID,0,VALID,88.64,VALID,0,VALID,25.4539,VALID,342,VALID,1.52695,
2009-12-03, 03:02:04,VALID,1001.26,VALID,0,VALID,88.7925,VALID,0.100563,VALID,25.4344,VALID,5,VALID,1.00977,
2009-12-03, 03:03:04,VALID,1001.25,VALID,0,VALID,88.7849,VALID,0.100563,VALID,25.4363,VALID,350,VALID,1.48906,
2009-12-03, 03:04:04,VALID,1001.24,VALID,0,VALID,88.8154,VALID,0.100563,VALID,25.4344,VALID,345,VALID,0.505078,
2009-12-03, 03:05:04,VALID,1001.22,VALID,0,VALID,88.9375,VALID,0.100563,VALID,25.4344,VALID,4,VALID,0.448438,
2009-12-03, 03:06:04,VALID,1001.17,VALID,0,VALID,89.0214,VALID,0.100563,VALID,25.4149,VALID,358,VALID,0.253125,
2009-12-03, 03:07:04,VALID,1001.14,VALID,0,VALID,89.0367,VALID,0.100563,VALID,25.3955,VALID,353,VALID,1.07656,
2009-12-03, 03:08:04,VALID,1001.16,VALID,0,VALID,89.0138,VALID,0.100563,VALID,25.3955,VALID,355,VALID,0.997266,
2009-12-03, 03:09:04,VALID,1001.11,VALID,0,VALID,89.0061,VALID,0.100563,VALID,25.3955,VALID,343,VALID,1.34063,
2009-12-03, 03:10:04,VALID,1001.14,VALID,0,VALID,89.0824,VALID,0.100563,VALID,25.376,VALID,342,VALID,1.59023,
2009-12-03, 03:11:04,VALID,1001.14,VALID,0,VALID,89.1664,VALID,0,VALID,25.376,VALID,331,VALID,0.747266,
2009-12-03, 03:12:04,VALID,1001.21,VALID,0,VALID,89.2884,VALID,0.100563,VALID,25.3565,VALID,331,VALID,0.517187,
2009-12-03, 03:13:04,VALID,1001.21,VALID,0,VALID,89.296,VALID,0.100563,VALID,25.3565,VALID,356,VALID,1.37969,
2009-12-03, 03:14:04,VALID,1001.25,VALID,0,VALID,89.2503,VALID,0.100563,VALID,25.3584,VALID,319,VALID,0.5625,
2009-12-03, 03:15:04,VALID,1001.29,VALID,0,VALID,89.3266,VALID,0.100563,VALID,25.3565,VALID,311,VALID,0.658594,
2009-12-03, 03:16:04,VALID,1001.34,VALID,0,VALID,89.0901,VALID,0.100563,VALID,25.376,VALID,287,VALID,1.57773,
2009-12-03, 03:17:04,VALID,1001.39,VALID,0,VALID,89.1053,VALID,0.100563,VALID,25.3974,VALID,259,VALID,0.772656,
2009-12-03, 03:18:04,VALID,1001.42,VALID,0,VALID,89.1969,VALID,0,VALID,25.376,VALID,287,VALID,0.444922,
2009-12-03, 03:19:04,VALID,1001.44,VALID,0,VALID,89.2503,VALID,0.100563,VALID,25.376,VALID,266,VALID,0.369922,
2009-12-03, 03:20:04,VALID,1001.4,VALID,0,VALID,89.3037,VALID,0.100563,VALID,25.3565,VALID,267,VALID,0.381641,
2009-12-03, 03:21:04,VALID,1001.38,VALID,0,VALID,89.4181,VALID,0.100563,VALID,25.376,VALID,281,VALID,0.744141,
2009-12-03, 03:22:04,VALID,1001.35,VALID,0,VALID,89.5097,VALID,0,VALID,25.3584,VALID,47,VALID,0.496875,
2009-12-03, 03:23:04,VALID,1001.28,VALID,0,VALID,89.4486,VALID,0,VALID,25.339,VALID,57,VALID,1.52422,
2009-12-03, 03:24:04,VALID,1001.29,VALID,0,VALID,89.3952,VALID,0.100563,VALID,25.337,VALID,358,VALID,0.945703,
2009-12-03, 03:25:04,VALID,1001.27,VALID,0,VALID,89.3723,VALID,0.100563,VALID,25.3565,VALID,48,VALID,1.05078,
2009-12-03, 03:26:04,VALID,1001.25,VALID,0,VALID,89.1969,VALID,0.100563,VALID,25.376,VALID,339,VALID,0.692578,
2009-12-03, 03:27:04,VALID,1001.32,VALID,0,VALID,89.4105,VALID,0,VALID,25.3974,VALID,327,VALID,0.322656,
2009-12-03, 03:28:04,VALID,1001.36,VALID,0,VALID,89.5631,VALID,0.100563,VALID,25.3584,VALID,355,VALID,0.878906,
2009-12-03, 03:29:04,VALID,1001.35,VALID,0,VALID,89.8453,VALID,0,VALID,25.3195,VALID,10,VALID,1.3457,
2009-12-03, 03:30:04,VALID,1001.36,VALID,0,VALID,89.8148,VALID,0,VALID,25.3195,VALID,346,VALID,1.01523,
2009-12-03, 03:31:04,VALID,1001.36,VALID,0,VALID,89.9216,VALID,0,VALID,25.2786,VALID,2,VALID,1.51914,
2009-12-03, 03:32:04,VALID,1001.39,VALID,0,VALID,90.1047,VALID,0,VALID,25.3,VALID,15,VALID,0.577734,
2009-12-03, 03:33:04,VALID,1001.38,VALID,0,VALID,90.12,VALID,0,VALID,25.2806,VALID,13,VALID,1.25312,
2009-12-03, 03:34:04,VALID,1001.43,VALID,0,VALID,90.2802,VALID,0,VALID,25.2806,VALID,1,VALID,0.192969,
2009-12-03, 03:35:04,VALID,1001.45,VALID,0,VALID,90.2649,VALID,0,VALID,25.2806,VALID,360,VALID,0.340234,
2009-12-03, 03:36:04,VALID,1001.56,VALID,0,VALID,90.2954,VALID,0,VALID,25.2806,VALID,287,VALID,0.976953,
2009-12-03, 03:37:04,VALID,1001.63,VALID,0,VALID,90.2954,VALID,0,VALID,25.2611,VALID,303,VALID,0.323438,
2009-12-03, 03:38:04,VALID,1001.65,VALID,0,VALID,90.3336,VALID,0,VALID,25.2611,VALID,236,VALID,0.874609,
2009-12-03, 03:39:04,VALID,1001.65,VALID,0,VALID,90.2268,VALID,0,VALID,25.2202,VALID,216,VALID,0.917578,
2009-12-03, 03:40:04,VALID,1001.63,VALID,0,VALID,90.448,VALID,0,VALID,25.2416,VALID,217,VALID,0.760156,
2009-12-03, 03:41:04,VALID,1001.62,VALID,0,VALID,90.8142,VALID,0.100563,VALID,25.2221,VALID,216,VALID,0.607422,
2009-12-03, 03:42:04,VALID,1001.62,VALID,0,VALID,90.7684,VALID,0,VALID,25.1637,VALID,206,VALID,0.9625,
2009-12-03, 03:43:04,VALID,1001.62,VALID,0,VALID,90.8371,VALID,0,VALID,25.1229,VALID,209,VALID,0.721484,